Regional Weather Roundup
Issued by NWS Austin/San Antonio, TX

Home | Current Version | Previous Version | Text Only | Print | Product List | Glossary On
Versions: 1 2 3 4 5 6 7 8 9 10 11 12 13 14 15 16 17 18 19 20 21 22 23 24 25 26 27 28 29 30 31 32 33 34 35 36 37 38 39 40 41 42 43 44 45 46 47 48 49 50
000
ASUS44 KEWX 211910
RWREWX
SOUTH TEXAS REGIONAL WEATHER ROUNDUP
NATIONAL WEATHER SERVICE AUSTIN/SAN ANTONIO TX
200 PM CDT THU SEP 21 2017

NOTE: "FAIR" INDICATED FEW OR NO CLOUDS BELOW 12,000 FEET WITH NO
SIGNIFICANT WEATHER AND/OR OBSTRUCTIONS TO VISIBILITY.

* - THESE STATIONS ARE NOT NWS OR FAA STATIONS...AND ARE NOT SUBJECT
    TO NWS AND FAA QUALITY CONTROL.

TXZ171-172-183>190-212000-
TEXAS HILL COUNTRY AND EDWARDS PLATEAU

CITY           SKY/WX    TMP DP  RH WIND       PRES   REMARKS
JUNCTION       MOSUNNY   91  66  43 S10       29.94F HX  93
*LLANO           N/A    N/A N/A N/A MISG        N/A
BURNET         PTSUNNY   92  68  45 S9G20     29.96F HX  96
*HORSESHOE BAY MOSUNNY   93  67  42 S6        29.93F HX  97
*KERRVILLE     CLOUDY    89  70  53 SE10G20   29.96F HX  94
*FREDERICKSBRG MOSUNNY   90  63  40 S10       29.96F HX  91
*ROCKSPRINGS   NOT AVBL
*BOERNE STAGE  CLOUDY    86  66  51 S8        29.97F
*CASTROVILLE   CLOUDY    90  67  46 E8        29.93F HX  93
HONDO          CLOUDY    93  70  46 SE15      29.92F HX  99
*UVALDE        CLOUDY    90  72  56 SE12G18   29.93F HX  97
DEL RIO        PTSUNNY   89  73  59 SE13      29.89F HX  97
LAUGHLIN AFB   PTSUNNY   89  71  55 SE13      29.89F HX  95
CARRIZO SPRGS  CLOUDY    91  72  52 SE9G17    29.88F HX  98
*EAGLE PASS    MOCLDY    90  72  55 E12       29.89F HX  96
$$

TXZ173-191>194-202-209-217>225-228-212000-
CENTRAL AND SOUTH CENTRAL TEXAS

CITY           SKY/WX    TMP DP  RH WIND       PRES   REMARKS
GEORGETOWN     MOSUNNY   92  70  48 S10       29.94F HX  97
AUSTIN/BERGSTM MOSUNNY   92  72  51 S10       29.91F HX  99
AUSTIN/MABRY   MOSUNNY   93  71  48 VRB5      29.93F HX 100
*AUSTIN/EXEC   MOSUNNY   91  72  52 SW7       29.93F HX  98
*LAGO VISTA    MOSUNNY   90  69  49 S7        29.95F HX  95
SAN MARCOS     MOSUNNY   92  73  53 S14       29.92F HX 100
NEW BRAUNFELS  CLOUDY    93  72  50 S9        29.91F HX 101
RANDOLPH AFB   CLOUDY    92  72  52 S12       29.92F HX  99
PT SAN ANTONIO PTSUNNY   92  71  51 E7        29.90F HX  98
SAN ANTONIO    CLOUDY    93  70  46 S13G22    29.93F HX  99
STINSON FIELD  MOSUNNY   94  72  48 SE8       29.89F HX 102
*LA GRANGE     MOSUNNY   92  76  60 SE6       29.90F HX 105
*GIDDINGS      MOSUNNY   89  71  56 S7        29.94F HX  95
*GONZALES      SUNNY     93  77  60 SW8       29.90F HX 107
$$

TXZ163>164-176>182-195>201-210>213-226-227-235-212000-
SOUTHEAST TEXAS

CITY           SKY/WX    TMP DP  RH WIND       PRES   REMARKS
COLLEGE STN    MOSUNNY   92  72  51 S9        29.94F HX  99
*BRYAN         PTSUNNY   90  73  58 E5        29.95F HX  98
*CALDWELL      CLOUDY    91  73  56 SE8       29.94F HX  99
*CROCKETT      PTSUNNY   90  73  58 S9        29.98F HX  98
*BRENHAM       MOSUNNY   92  73  53 E7        29.94F HX 101
HUNTSVILLE     PTSUNNY   87  71  58 VRB5      29.97S HX  93
CONROE         CLOUDY    81  75  82 SE10      29.98F
HOUSTON BUSH   CLOUDY    78  70  76 S7        29.97F
HOUSTON HOBBY  TSTM      76  73  91 S7        29.99F
*HOUSTON SW AP TSTM      72  71  96 SE5       30.01S
PEARLAND       TSTM      75  72  90 SW9G21    30.02R VSB 1
HOUSTON HOOKS  RAIN      75  73  93 CALM      29.97F FOG
ELLINGTON FLD  TSTM      73  73 100 CALM      30.02F
SUGAR LAND     CLOUDY    80  74  81 SE13      29.97F
*HOUSTON EXEC  CLOUDY    77  75  94 E12       29.98S
*CLEVELAND MUN CLOUDY    86  74  67 S9        29.98F HX  95
*WHARTON       TSTM      74  69  84 SE14G21   29.96F
*COLUMBUS      FAIR      80  71  73 SW3       29.95F
*EAGLE LAKE    PTCLDY    82  75  80 S3        29.94F
$$

TXZ214>216-236>238-212000-
THE UPPER TEXAS COAST

CITY           SKY/WX    TMP DP  RH WIND       PRES   REMARKS
*ORANGE        MOSUNNY   88  73  61 S6        29.99F HX  96
PORT ARTHUR    HVY RAIN  78  72  81 S14       29.97F VSB 3/4
GALVESTON      CLOUDY    86  77  74 SE13      29.98F HX  97
ANGLETON       CLOUDY    82  76  81 E6        29.96S
*BAY CITY      MOSUNNY   82  75  80 SE6       29.94F
PALACIOS       LGT RAIN  80  75  84 SE8       29.93F
$$

TXZ229>234-239>247-212000-
TEXAS COASTAL BEND AND RIO GRANDE PLAINS

CITY           SKY/WX    TMP DP  RH WIND       PRES   REMARKS
VICTORIA       PTSUNNY   91  74  57 SW14      29.90F HX 100
*BEEVILLE      PTSUNNY   93  62  35 SE12G18   29.90F HX  93
ROCKPORT       MOSUNNY   90  78  68 SE15      29.90F HX 104
*PORT ARANSAS  NOT AVBL
*PORT LAVACA   NOT AVBL
*INGLESIDE     PTSUNNY   91  79  66 MISG      29.90F HX 107
CORPUS CHRISTI PTSUNNY   93  76  57 SE16      29.90F HX 105
CORPUS NAS     CLOUDY    90  79  70 SE16      29.90F HX 106
*ROBSTOWN      MOSUNNY   92  74  54 SE15G24   29.89F HX 102
ALICE          MOSUNNY   91  72  53 SE15G22   29.87F HX  98
KINGSVILLE NAS PTSUNNY   92  80  68 SE17      29.88F HX 110
COTULLA        CLOUDY    92  70  48 SE10      29.88F HX  97
*FAITH RANCH   MOSUNNY   93  72  49 SE10G18   29.89F HX 100
LAREDO         CLOUDY    94  72  48 SE15      29.87F HX 102
$$

TXZ248>255-212000-
DEEP SOUTH TEXAS

CITY           SKY/WX    TMP DP  RH WIND       PRES   REMARKS
BROWNSVILLE    PTSUNNY   91  77  63 SE17G26   29.89F HX 104
PORT ISABEL    MOSUNNY   95  77  55 SE18G28   29.88F HX 109
*SOUTH PADRE   NOT AVBL
HARLINGEN      MOSUNNY   96  74  48 S18       29.86F HX 107
*HEBBRONVILLE  CLOUDY    93  66  41 SE10      29.89F HX  96
MCALLEN        CLOUDY    99  72  41 S20G25    29.86F HX 108
*WESLACO       MOSUNNY   96  71  42 S14G22    29.86F HX 103
FALFURRIAS     MOSUNNY  -38  32 100 SE7       29.86F WCI -58
EDINBURG       MOSUNNY   95  69  42 S14       29.86F HX 100
*ZAPATA        PTSUNNY   94  68  41 SE8       29.86F HX  98
$$

TXZ213>215-236>238-242>244-246-247-251-254-255-212000-
CMAN STATIONS

STATION/POSITION TIME  TEMP    WIND        PRES    WAVE
                       AIR SEA DIR/SP/G            HT/PER
                 (UTC) (F)     (DEG/KT/KT) (MB)    (FT/S)
SABINE PASS      1842   84 85  140/ 13/ 16 1017.0
SEA RIM ST PARK  1800   84     140/  8/ 10 1016.3
NORTH JETTY/GLS  1842      85  120/  5/  8 1014.7
EAGLE POINT      1842   84 85  160/ 12/ 13 1015.4
MORGANS POINT    1842   76 83  300/  4/  7 1015.4
PORT O`CONNOR    1842   84 86  170/ 12/ 17 1013.0
MALAQUITE BEACH  1842   83 85  130/ 15/ 16 1012.2
BAFFIN BAY       1842   85 87  130/ 16/ 19 1012.5
PORT ISABEL      1842   86 85  130/ 16/ 18 1012.6
$$




USA.gov is the U.S. government's official web portal to all federal, state and local government web resources and services.